EW1423 Weather Reports


time (UTC)temp
C
wind
direction
speed
KPH
gust
KPH
rain 1hr
cm
rain 24hr
cm
rain mn
cm
humidity
%
barometer
mb
20260505022304 12 304 0.0 0.0 0.00 0.00 0.00 88 1010.8
20260505021803 12 304 0.0 1.6 0.00 0.00 0.00 87 1010.9
20260505021304 12 304 0.0 1.6 0.00 0.00 0.00 87 1010.9
20260505020804 12 304 0.0 0.0 0.00 0.00 0.00 86 1011.3
20260505020303 13 304 0.0 0.0 0.00 0.00 0.00 86 1011.3
20260505015803 13 304 0.0 1.6 0.00 0.00 0.00 85 1011.3
20260505015304 13 304 0.0 0.0 0.00 0.00 0.00 85 1011.3
20260505014803 13 304 0.0 1.6 0.00 0.00 0.00 85 1011.3
20260505014303 13 304 0.0 1.6 0.00 0.00 0.00 85 1011.3
20260505013804 13 304 0.0 1.6 0.00 0.00 0.00 85 1011.3
20260505013303 13 304 0.0 1.6 0.00 0.00 0.00 85 1011.5
20260505012304 13 304 0.0 0.0 0.00 0.00 0.00 85 1011.5
20260505011804 13 304 0.0 0.0 0.00 0.00 0.00 84 1011.5
20260505011303 13 304 0.0 0.0 0.00 0.00 0.00 83 1011.5
20260505010804 13 304 0.0 0.0 0.00 0.00 0.00 83 1011.5
20260505010303 13 304 0.0 0.0 0.00 0.00 0.00 83 1011.5
20260505005304 13 304 0.0 1.6 0.00 0.00 0.00 83 1011.6
20260505004803 13 304 0.0 1.6 0.00 0.00 0.00 83 1011.7
20260505004304 13 304 0.0 0.0 0.00 0.00 0.00 82 1011.7
20260505003803 13 304 0.0 0.0 0.00 0.00 0.00 82 1011.7
20260505003304 13 304 0.0 0.0 0.00 0.00 0.00 81 1011.7
20260505002803 14 304 0.0 1.6 0.00 0.00 0.00 81 1011.7
20260505002304 14 304 0.0 0.0 0.00 0.00 0.00 80 1011.9
20260505001803 14 304 0.0 0.0 0.00 0.00 0.00 80 1011.9
20260505001303 14 304 0.0 0.0 0.00 0.00 0.00 80 1011.9
20260505000804 14 304 0.0 0.0 0.00 0.00 0.00 80 1011.9
20260505000303 14 304 0.0 0.0 0.00 0.00 0.00 80 1011.9
20260504235803 14 304 0.0 4.8 0.00 0.00 0.00 80 1011.9
20260504235305 14 298 0.0 1.6 0.00 0.00 0.00 80 1011.9
20260504234803 13 298 0.0 1.6 0.00 0.00 0.00 81 1011.9
20260504234303 13 298 0.0 1.6 0.00 0.00 0.00 82 1011.9
20260504233804 13 298 0.0 1.6 0.00 0.00 0.00 81 1011.9
20260504232804 13 298 0.0 1.6 0.00 0.00 0.00 81 1012.0
20260504232304 13 298 0.0 0.0 0.00 0.00 0.00 81 1012.2
20260504231803 13 298 0.0 0.0 0.00 0.00 0.00 81 1012.2
20260504231305 14 298 0.0 0.0 0.00 0.00 0.00 80 1012.2
20260504230803 14 298 0.0 0.0 0.00 0.00 0.00 80 1012.2
20260504230304 14 298 0.0 0.0 0.00 0.00 0.00 79 1012.2
20260504225304 14 298 0.0 0.0 0.00 0.00 0.00 79 1012.3
20260504224804 14 298 0.0 0.0 0.00 0.00 0.00 78 1012.3
20260504224304 14 298 0.0 1.6 0.00 0.00 0.00 79 1012.3
20260504223804 14 298 0.0 0.0 0.00 0.00 0.00 78 1012.4
20260504223304 14 298 0.0 0.0 0.00 0.00 0.00 78 1012.4
20260504222803 15 298 0.0 1.6 0.00 0.00 0.00 77 1012.4
20260504222305 15 298 0.0 0.0 0.00 0.00 0.00 77 1012.4
20260504221804 15 298 0.0 1.6 0.00 0.00 0.00 77 1012.4
20260504221304 15 298 0.0 0.0 0.00 0.00 0.00 77 1012.5
20260504220810 15 298 0.0 0.0 0.00 0.00 0.00 77 1012.5
20260504220303 15 298 0.0 0.0 0.00 0.00 0.00 75 1012.5
20260504215804 15 298 0.0 0.0 0.00 0.00 0.00 75 1012.5
20260504215304 15 298 0.0 0.0 0.00 0.00 0.00 74 1012.5
20260504214303 15 298 0.0 0.0 0.00 0.00 0.00 73 1012.5
20260504213804 15 298 0.0 3.2 0.00 0.00 0.00 73 1012.5
20260504213304 15 297 0.0 0.0 0.00 0.00 0.00 74 1012.5
20260504212803 15 297 0.0 0.0 0.00 0.00 0.00 73 1012.5
20260504212304 15 297 0.0 1.6 0.00 0.00 0.00 72 1012.5
20260504211804 15 297 0.0 0.0 0.00 0.00 0.00 73 1012.5
20260504211304 15 297 0.0 0.0 0.00 0.00 0.00 71 1012.5
20260504210803 15 297 0.0 0.0 0.00 0.00 0.00 72 1012.4
20260504210304 16 297 0.0 0.0 0.00 0.00 0.00 72 1012.4
20260504205803 16 297 0.0 0.0 0.00 0.00 0.00 71 1012.5
20260504205304 16 297 0.0 0.0 0.00 0.00 0.00 70 1012.5
20260504204303 16 297 0.0 0.0 0.00 0.00 0.00 69 1012.6
20260504203803 16 297 0.0 1.6 0.00 0.00 0.00 68 1012.6
20260504203304 16 297 0.0 0.0 0.00 0.00 0.00 68 1012.7
20260504202804 16 297 0.0 1.6 0.00 0.00 0.00 68 1012.7
20260504202305 16 297 0.0 0.0 0.00 0.00 0.00 68 1012.7
20260504201803 16 297 0.0 1.6 0.00 0.00 0.00 68 1012.7
20260504201303 17 297 0.0 3.2 0.00 0.00 0.00 67 1012.9
20260504200803 17 297 0.0 3.2 0.00 0.00 0.00 66 1012.9
20260504200304 17 297 0.0 3.2 0.00 0.00 0.00 66 1012.9
20260504195804 17 297 0.0 3.2 0.00 0.00 0.00 66 1012.9
20260504195304 17 297 1.6 4.8 0.00 0.00 0.00 65 1012.6
20260504194803 17 286 0.0 3.2 0.00 0.00 0.00 66 1012.5
20260504194304 17 286 0.0 3.2 0.00 0.00 0.00 66 1012.5
20260504193304 17 267 0.0 3.2 0.00 0.00 0.00 64 1012.7
20260504192804 17 263 1.6 4.8 0.00 0.00 0.00 63 1012.7
20260504192304 17 276 1.6 8.0 0.00 0.00 0.00 62 1012.6
20260504191804 17 315 1.6 4.8 0.00 0.00 0.00 61 1012.6
20260504191304 17 286 1.6 4.8 0.00 0.00 0.00 60 1012.6
20260504190804 18 5 1.6 3.2 0.00 0.00 0.00 59 1012.6
20260504190303 18 300 1.6 4.8 0.00 0.00 0.00 59 1012.5
20260504185803 18 301 1.6 8.0 0.00 0.00 0.00 58 1012.4
20260504185304 18 302 1.6 8.0 0.00 0.00 0.00 57 1012.4
20260504184804 18 303 1.6 8.0 0.00 0.00 0.00 56 1012.5
20260504184304 18 304 0.0 4.8 0.00 0.00 0.00 56 1012.4
20260504183803 18 300 1.6 4.8 0.00 0.00 0.00 56 1012.3
20260504183303 18 329 1.6 8.0 0.00 0.00 0.00 56 1012.3
20260504182804 18 296 1.6 8.0 0.00 0.00 0.00 56 1012.3
20260504182304 18 313 1.6 4.8 0.00 0.00 0.00 56 1012.3
20260504181804 18 306 1.6 4.8 0.00 0.00 0.00 56 1012.1
20260504181304 19 355 1.6 4.8 0.00 0.00 0.00 55 1012.1
20260504180804 19 281 3.2 8.0 0.00 0.00 0.00 54 1012.1
20260504180304 19 298 3.2 14.5 0.00 0.00 0.00 54 1012.1
20260504175803 20 317 1.6 4.8 0.00 0.00 0.00 54 1012.1
20260504175304 20 313 3.2 11.3 0.00 0.00 0.00 54 1012.0
20260504174804 20 315 3.2 11.3 0.00 0.00 0.00 54 1012.0
20260504174303 20 291 3.2 9.7 0.00 0.00 0.00 54 1011.8
20260504173803 20 293 3.2 11.3 0.00 0.00 0.00 53 1011.8
20260504173304 20 293 1.6 8.0 0.00 0.00 0.00 54 1011.8
20260504172805 20 343 3.2 8.0 0.00 0.00 0.00 54 1011.8
20260504171304 20 295 3.2 8.0 0.00 0.00 0.00 54 1011.8
20260504170804 20 315 1.6 8.0 0.00 0.00 0.00 54 1011.8
20260504170304 20 287 4.8 12.9 0.00 0.00 0.00 52 1011.8
20260504160303 22 277 3.2 8.0 0.00 0.00 0.00 48 1011.8
20260504141304 25 314 3.2 8.0 0.00 0.00 0.00 40 1012.1
20260504140803 25 32 3.2 11.3 0.00 0.00 0.00 41 1012.1
20260504140304 25 30 1.6 8.0 0.00 0.00 0.00 40 1012.5
20260504130804 23 38 4.8 11.3 0.00 0.00 0.00 44 1012.8
20260504130303 24 2 3.2 9.7 0.00 0.00 0.00 40 1012.8
20260504120304 22 312 1.6 3.2 0.00 0.00 0.00 46 1013.6
20260504110303 22 278 0.0 4.8 0.00 0.00 0.00 50 1013.7
20260504100303 22 97 1.6 4.8 0.00 0.00 0.00 48 1014.2
20260504081804 18 71 1.6 4.8 0.00 0.00 0.00 61 1015.0
20260504081303 18 88 1.6 4.8 0.00 0.00 0.00 63 1015.0
20260504050303 9 74 0.0 0.0 0.00 0.00 0.00 89 1015.0
20260504045804 9 74 0.0 0.0 0.00 0.00 0.00 89 1015.0
20260504045304 8 74 0.0 0.0 0.00 0.00 0.00 89 1015.0
20260504044804 8 74 0.0 0.0 0.00 0.00 0.00 89 1015.0
20260504044304 8 74 0.0 0.0 0.00 0.00 0.00 89 1015.0
20260504043803 8 74 0.0 0.0 0.00 0.00 0.00 89 1015.0
20260504043303 8 74 0.0 0.0 0.00 0.00 0.00 90 1015.0
20260504042803 8 74 0.0 0.0 0.00 0.00 0.00 89 1015.0
20260504042304 8 74 0.0 0.0 0.00 0.00 0.00 89 1015.0
20260504041803 9 74 0.0 0.0 0.00 0.00 0.00 89 1015.0
20260504041304 9 74 0.0 0.0 0.00 0.00 0.00 88 1015.0
20260504040803 9 74 0.0 0.0 0.00 0.00 0.00 88 1015.0
20260504035803 9 74 0.0 0.0 0.00 0.00 0.00 87 1015.0
20260504035305 10 74 0.0 0.0 0.00 0.00 0.00 86 1015.0
20260504034804 10 74 0.0 0.0 0.00 0.00 0.00 85 1015.0
20260504033805 10 74 0.0 0.0 0.00 0.00 0.00 85 1015.0
20260504033303 10 74 0.0 0.0 0.00 0.00 0.00 85 1015.0
20260504032803 10 74 0.0 0.0 0.00 0.00 0.00 84 1015.0
20260504032304 10 74 0.0 0.0 0.00 0.00 0.00 84 1015.0
20260504031804 10 74 0.0 0.0 0.00 0.00 0.00 83 1015.0
20260504030803 11 74 0.0 0.0 0.00 0.00 0.00 83 1015.0
20260504030304 11 74 0.0 0.0 0.00 0.00 0.00 83 1015.0
20260504025804 11 74 0.0 0.0 0.00 0.00 0.00 83 1015.0
20260504025304 11 74 0.0 0.0 0.00 0.00 0.00 82 1015.0
20260504024303 11 74 0.0 0.0 0.00 0.00 0.00 81 1015.0
20260504023303 11 74 0.0 0.0 0.00 0.00 0.00 82 1015.0